{"data":{"norad_id":68943,"epoch":"2026-09-19T12:49:36.302016Z","epoch_age_seconds":102818,"freshness":"FRESH","line1":"1 68943U 26098AA  26262.53444794  .00001919  00000+0  28049-3 0  9998","line2":"2 68943  51.9016 353.4884 0000221 175.2847 184.8118 14.79952674 21556","mean_motion":14.79952674,"eccentricity":2.21e-5,"inclination_deg":51.9016,"raan_deg":353.4884,"arg_perigee_deg":175.2847,"mean_anomaly_deg":184.8118,"bstar":0.00028049,"rev_number":2155,"period_min":97.300408675095,"perigee_km":629.31865572766,"apogee_km":629.62839211282,"semimajor_km":7007.6105239202,"source":"CELESTRAK","updated_at":"2026-09-20T09:00:24.583300Z"}}